El Segundo, CA

3:29 PM PST on February 27, 2017 (GMT -0800)
Los Angeles International

Weather History for KLAX - November, 2012

Change the Weather History Date:

Monday, November 19, 2012

  Actual Average Record
Temperature  
Mean Temperature 62 °F 60 °F  
Max Temperature 67 °F 68 °F 90 °F (1989)
Min Temperature 56 °F 52 °F 38 °F (1964)
Degree Days  
Heating Degree Days 3 5  
Month to date heating degree days 47 71  
Since 1 July heating degree days 64 115  
Cooling Degree Days 0 0  
Month to date cooling degree days 24 18  
Year to date cooling degree days 735 549  
Growing Degree Days 10 (Base 50)    
Moisture  
Dew Point 54 °F    
Average Humidity 78    
Maximum Humidity 93    
Minimum Humidity 63    
Precipitation  
Precipitation 0.00 in 0.04 in 0.82 in (1967)
Month to date precipitation 0.32 0.62  
Year to date precipitation 5.08 10.28  
Since 1 July precipitation 0.47  
Sea Level Pressure  
Sea Level Pressure 30.20 in    
Wind  
Wind Speed 6 mph (WSW)    
Max Wind Speed 15 mph    
Max Gust Speed 18 mph    
Visibility 10 miles    
Events Fog    
T = Trace of Precipitation, MM = Missing Value Source: NWS Daily Summary

Daily Weather History Graph

Daily Weather History Graph

Search for Another Location

Airport or City:

Trip Planner

Search our weather history database for the weather conditions in past years. The results will help you decide how hot, cold, wet, or windy it might be!

Date:

Astronomy

Nov. 19, 2012 Rise Set
Actual Time 6:30 AM PST 4:47 PM PST
Civil Twilight 6:03 AM PST 5:14 PM PST
Nautical Twilight 5:33 AM PST 5:44 PM PST
Astronomical Twilight 5:03 AM PST 6:14 PM PST
Moon 11:42 AM PST (11/19) 11:12 PM PST (11/19)
Length of Visible Light 11h 10m
Length of Day
10h 17m
Waxing Crescent, 42% of the Moon is Illuminated
Nov 19
Waxing Crescent
Nov 20
First Quarter
Nov 28
Full
Dec 6
Last Quarter
Dec 13
New

Hourly Weather History & Observations

Time (PST) Temp. Dew Point Humidity Pressure Visibility Wind Dir Wind Speed Gust Speed Precip Events Conditions
12:53 AM 60.6 °F 55.0 °F 82% 30.19 in 10.0 mi West 6.9 mph - N/A   Scattered Clouds
1:53 AM 60.6 °F 55.0 °F 82% 30.19 in 10.0 mi ENE 3.5 mph - N/A   Scattered Clouds
2:53 AM 56.5 °F 53.1 °F 88% 30.18 in 10.0 mi ENE 3.5 mph - N/A   Scattered Clouds
3:53 AM 56.7 °F 53.1 °F 88% 30.17 in 10.0 mi Calm Calm - N/A   Scattered Clouds
4:53 AM 55.9 °F 53.1 °F 90% 30.18 in 10.0 mi Calm Calm - N/A   Scattered Clouds
5:53 AM 56.3 °F 53.1 °F 89% 30.21 in 8.0 mi Calm Calm - N/A   Mostly Cloudy
6:53 AM 57.0 °F 53.1 °F 87% 30.23 in 10.0 mi SE 3.5 mph - N/A Fog Shallow Fog
7:53 AM 57.0 °F 53.1 °F 87% 30.24 in 10.0 mi ESE 6.9 mph - N/A   Mostly Cloudy
8:53 AM 60.1 °F 54.0 °F 80% 30.25 in 10.0 mi Calm Calm - N/A   Mostly Cloudy
9:53 AM 64.9 °F 53.1 °F 65% 30.25 in 10.0 mi Variable 3.5 mph - N/A   Scattered Clouds
10:53 AM 66.0 °F 53.1 °F 63% 30.24 in 10.0 mi Variable 6.9 mph - N/A   Scattered Clouds
11:53 AM 64.9 °F 54.0 °F 68% 30.22 in 10.0 mi West 10.4 mph - N/A   Scattered Clouds
12:53 PM 64.9 °F 54.0 °F 68% 30.20 in 10.0 mi West 10.4 mph - N/A   Scattered Clouds
1:53 PM 64.0 °F 55.0 °F 73% 30.18 in 10.0 mi West 12.7 mph - N/A   Scattered Clouds
2:53 PM 64.0 °F 55.9 °F 75% 30.18 in 10.0 mi West 13.8 mph - N/A   Partly Cloudy
3:46 PM 62.6 °F 57.2 °F 82% 30.18 in 10.0 mi West 13.8 mph - N/A   Scattered Clouds
3:53 PM 63.0 °F 57.0 °F 81% 30.18 in 10.0 mi West 13.8 mph - N/A   Scattered Clouds
4:53 PM 61.7 °F 57.0 °F 85% 30.18 in 10.0 mi West 10.4 mph - N/A   Partly Cloudy
5:53 PM 60.8 °F 55.9 °F 84% 30.19 in 10.0 mi West 9.2 mph - N/A   Partly Cloudy
6:53 PM 59.9 °F 55.0 °F 84% 30.19 in 10.0 mi WSW 10.4 mph - N/A   Partly Cloudy
7:53 PM 59.7 °F 55.9 °F 87% 30.19 in 10.0 mi WSW 5.8 mph - N/A   Clear
8:53 PM 60.3 °F 54.0 °F 80% 30.19 in 10.0 mi Calm Calm - N/A   Clear
9:53 PM 60.3 °F 54.0 °F 80% 30.19 in 10.0 mi ESE 3.5 mph - N/A   Clear
10:53 PM 59.5 °F 53.1 °F 79% 30.17 in 10.0 mi Calm Calm - N/A   Clear
11:53 PM 58.6 °F 53.1 °F 82% 30.17 in 10.0 mi Calm Calm - N/A   Partly Cloudy